Location: Ampere
(40.7668°N, 74.1949°W)
Time: 05:50:44
(UTC+00:00)

Daily predictions for brighter satellites

Satellite Brightness Start Highest point End
(mag) Time Altitude Azimuth Time Altitude Azimuth Time Altitude Azimuth
Meteor 2-10 Rocket 3.4 00:02:37 10° N 00:07:43 66° NE 00:07:43 66° NE
Cosmos-2242 4.1 00:06:15 10° N 00:15:46 - S 00:08:49 35° NNW
Cosmos 1959 Rocket 4.3 00:06:11 10° S 00:12:24 85° E 00:17:55 13° N
Cosmos 1269 Rocket 4.1 00:07:32 10° NNW 00:12:50 77° WSW 00:17:04 16° S
SL-16 R/B 3.7 00:09:19 10° N 00:11:32 21° N 00:11:32 21° N
Cosmos 2219 3.5 00:09:20 10° SW 00:14:52 62° WNW 00:17:28 32° N
Cosmos 1953 Rocket 3.8 00:12:28 10° SSW 00:16:24 66° SW 00:16:24 66° SW
Cosmos 2366 rocket 3.9 00:13:11 10° S 00:19:22 89° WNW 00:24:45 15° N
Cosmos 2082 4.4 00:14:57 10° S 00:18:33 38° SSE 00:18:33 38° SSE
Cosmos 2297 Rocket 2.5 00:29:09 10° SW 00:34:44 61° WNW 00:35:30 56° NNW
Cosmos 1980 4.3 00:31:38 10° NNW 00:37:11 55° WSW 00:39:24 34° SSW
Atlas Centaur 2 4.3 00:37:36 10° SSW 00:39:42 16° S 00:39:42 16° S
Cosmos 2227 Rocket 2.7 00:40:52 10° SW 00:46:23 54° WNW 00:46:28 54° WNW
Ariane Rocket 4.1 00:53:43 40° WSW 00:53:48 40° W 00:58:36 10° NNW
CZ-3 R/B 4.2 08:26:11 43° SSW 08:30:16 47° S 08:40:16 10° ESE
Cosmos 2219 4.4 09:11:51 36° SE 09:11:51 36° SE 09:15:17 10° SE
USA 215 3.6 09:18:51 10° ESE 09:25:13 58° NE 09:26:03 54° N
Cosmos 2297 Rocket 2.6 09:29:07 60° ENE 09:29:07 60° ENE 09:34:31 10° SE
COSMO-SKYMED 1 4.3 09:28:31 10° SE 09:32:18 30° ENE 09:32:57 29° NE
ALOS 4.2 09:28:19 10° NE 09:32:20 28° E 09:36:19 10° SSE
CZ-3B R/B 3.7 09:41:31 11° SSE 09:41:31 11° SSE 09:42:16 10° SSE
Cosmos 2227 Rocket 2.4 09:40:07 64° NNE 09:40:38 68° ENE 09:46:14 10° SSE
Lacrosse 5 rocket 3.8 09:57:51 15° N 09:57:51 15° N 09:59:05 10° NNE
BREEZE-M DEB (TANK) 4.5 09:31:27 10° SW 09:56:03 82° NW 10:01:34 10° NE
Cosmos 1656 3.7 10:00:16 57° NNW 10:00:16 57° NNW 10:04:51 10° NNE
Cosmos 2369 3.8 09:55:20 10° SSW 10:01:00 75° ESE 10:06:44 10° NNE
Cosmos 1758 3.8 09:57:34 10° S 10:01:31 58° E 10:05:27 10° NNE
Cosmos 1626 3.3 10:04:33 37° SSE 10:04:33 37° SSE 10:06:57 10° SSE
Cosmos 1953 3.8 10:05:56 10° SSE 10:09:40 38° E 10:13:27 10° NNE
Cosmos 2327 Rocket 4.4 10:06:24 10° N 10:12:44 87° E 10:18:54 10° S
NOSS 2-2 (D) 3.6 10:12:35 53° SSE 10:13:02 58° ESE 10:16:49 10° NE
Nadezhda 1 Rocket 3.8 10:08:04 10° S 10:14:09 88° W 10:20:15 10° N
Cosmos 1602 Rocket 3.5 10:13:22 37° N 10:15:02 80° E 10:19:21 10° S
Cosmos 44 4.4 10:19:14 26° SSW 10:19:14 26° SSW 10:21:41 10° S
METEOR-M 4.2 10:12:22 10° NNE 10:17:45 79° ESE 10:23:05 10° S
SKYMED 2 3.4 10:15:50 10° S 10:20:10 80° WSW 10:21:30 44° NNW
BREEZE M DEB (TANK) 2.8 10:20:52 54° ESE 10:20:52 54° ESE 10:24:04 10° ENE
MOS 1-B 4.3 10:14:53 10° NNE 10:20:43 84° ESE 10:26:30 10° SSW
CZ-4B R/B 4.2 10:15:42 10° NNE 10:21:07 49° E 10:26:22 10° S
Cosmos 2344 3.4 10:15:23 15° SW 10:21:53 74° NW 10:29:54 10° NNE
SJ-12 3.7 10:18:32 10° N 10:22:36 78° WNW 10:26:39 10° SSW
Cosmos 44 Rocket 4.0 10:20:40 23° N 10:23:18 48° NE 10:27:53 10° SE
Okean O Rocket 2.4 10:21:26 10° NNE 10:25:49 53° E 10:30:09 10° S
STARLINK-26 3.5 10:26:09 51° S 10:26:46 63° SE 10:30:16 10° ENE
Meteor 1-24 Rocket 4.1 10:26:53 40° WNW 10:27:38 41° W 10:33:05 10° SSW
Cosmos 1980 Rocket 2.6 10:23:06 10° S 10:28:43 66° ESE 10:34:22 10° NNE
Cosmos 1726 3.9 10:26:56 10° SSE 10:30:15 33° E 10:33:34 10° NNE
Cosmos 1758 Rocket 4.4 10:27:11 10° N 10:31:27 51° E 10:35:44 10° SSE
Cosmos 2184 Rocket 4.2 10:30:12 10° NNW 10:36:03 45° W 10:41:55 10° SSW
Cosmos 1697 Rocket 2.7 10:32:29 10° SW 10:38:00 57° WNW 10:43:33 10° NNE
FENGYUN 3A 3.5 10:32:49 10° N 10:38:11 70° WNW 10:43:33 10° SSW
Cosmos 1626 Rocket 3.8 10:38:35 41° W 10:38:47 41° W 10:42:52 10° SSW
Cosmos 1470 3.6 10:43:59 32° NW 10:43:59 32° NW 10:46:39 10° N
Cosmos 2154 Rocket 3.9 10:37:38 10° NNW 10:43:46 63° W 10:49:52 10° S
Meteor 2-17 Rocket 4.3 10:38:52 10° N 10:44:59 84° W 10:51:02 10° S
USA 116 4.1 10:41:17 10° S 10:46:19 74° WSW 10:50:53 10° NNW
STARLINK-28 4.3 10:43:56 10° SSW 10:47:19 44° SE 10:50:43 10° ENE
Helios 1A Rocket 3.1 10:45:03 10° NNE 10:49:10 74° ESE 10:53:17 10° S
STARLINK-46 3.7 10:49:57 25° NE 10:49:57 25° NE 10:51:42 10° E
NOSS 2-2 (C) 3.3 10:50:12 30° WSW 10:51:36 49° NW 10:55:27 10° NNE
DMSP B5D1-3 4.5 10:47:04 10° SSE 10:52:11 89° W 10:57:20 10° NNW
Cosmos 1825 Rocket 3.5 10:54:06 10° N 10:58:26 90° NE 11:02:46 10° S
CZ-4B DEB 4.3 10:53:28 10° N 10:58:50 51° WNW 11:04:09 10° SW
Cosmos 2082 4.0 10:54:45 17° NW 10:58:52 46° WSW 11:04:16 10° S
STARLINK-34 4.3 10:56:45 10° SSW 11:00:39 54° SE 11:04:35 10° ENE
NOSS 3-4 (A) 4.4 10:55:53 10° S 11:01:34 49° ESE 11:07:31 10° NE
NOSS 3-4 (C) 4.4 10:56:00 10° S 11:01:41 49° ESE 11:07:37 10° NE
NOSS 2-2 (E) 3.9 11:01:48 25° W 11:02:59 32° NW 11:06:39 10° NNE
STARLINK-24 4.2 10:59:04 10° SW 11:03:00 56° SE 11:06:56 10° ENE
STARLINK-81 4.4 10:59:49 10° SSW 11:03:43 52° SE 11:07:38 10° ENE
BREEZE-M DEB (TANK) 3.7 11:02:52 22° WNW 11:05:05 41° N 11:15:00 10° ENE
STARLINK-54 4.1 11:01:34 10° SW 11:05:31 59° SE 11:09:28 10° ENE
STARLINK-77 4.2 11:03:04 10° SW 11:07:00 56° SE 11:10:57 10° ENE
ATLAS 3B R/B 4.0 11:01:23 10° NNW 11:07:26 34° NE 11:13:36 10° ESE
USA 215 3.8 11:02:13 10° SSE 11:08:19 42° SW 11:13:25 15° WNW
COSMO-SKYMED 1 3.7 11:05:00 10° SSW 11:08:27 23° W 11:10:10 18° WNW
STARLINK-25 4.1 11:04:44 10° SW 11:08:40 58° SE 11:12:38 10° ENE
EXPRESS MD2 4.1 11:08:43 19° NW 11:09:08 20° NNW 11:11:05 10° NNE
ALOS 3.0 11:05:40 10° N 11:09:41 29° WNW 11:13:41 10° SW
STARLINK-71 3.9 11:06:31 10° SW 11:10:30 67° SE 11:14:30 10° NE
STARLINK-79 4.0 11:07:59 10° SW 11:11:57 62° SE 11:15:56 10° ENE
Cosmos 2297 Rocket 3.5 11:10:59 17° W 11:12:25 18° W 11:16:11 10° SW
STARLINK-78 3.9 11:09:39 10° SW 11:13:38 65° SE 11:17:38 10° NE
Abrixas rocket 3.9 11:12:14 15° NNW 11:13:42 20° N 11:16:04 10° ENE
NOSS 3-2 (A) 4.1 11:06:04 10° NW 11:13:47 90° ENE 11:22:18 10° SSE
Cosmos 1606 Rocket 3.6 11:10:20 10° SSW 11:14:44 59° W 11:19:08 10° N
STARLINK-57 3.8 11:11:23 10° SW 11:15:23 71° SE 11:19:24 10° NE
Cosmos 2322 Rocket 3.8 11:10:32 10° S 11:15:43 39° ESE 11:20:59 10° NE
Cosmos 2366 rocket 4.3 11:09:27 10° N 11:15:49 76° E 11:22:10 10° SSE
SL-4 R/B 2.7 11:13:47 14° NW 11:16:27 35° NNE 11:19:38 10° E
STARLINK-49 3.8 11:12:55 10° SW 11:16:55 69° SE 11:20:55 10° NE
STARLINK-48 4.4 11:15:22 18° W 11:17:35 31° NNW 11:21:06 10° NE
Cosmos 1726 Rocket 3.5 11:13:33 10° SSW 11:17:59 69° W 11:22:26 10° N
STARLINK-27 3.8 11:14:33 10° SW 11:18:34 72° SE 11:22:35 10° NE
AQUARIUS 4.4 11:15:25 10° NNE 11:19:55 75° ESE 11:24:24 10° S
STARLINK-74 3.7 11:16:12 10° SW 11:20:12 74° SE 11:24:14 10° NE
STARLINK-39 3.7 11:17:51 10° SW 11:21:52 77° SE 11:25:54 10° NE
STARLINK 3.6 11:19:30 10° SW 11:23:30 80° SE 11:27:33 10° NE
Cosmos 2227 Rocket 3.7 11:22:00 14° WNW 11:24:01 16° W 11:27:21 10° SW
STARLINK-69 3.5 11:21:18 10° SW 11:25:19 89° SE 11:29:22 10° NE
STARLINK-21 3.6 11:22:51 10° SW 11:26:53 86° SE 11:30:55 10° NE
Cosmos 923 Rocket 4.0 11:22:35 10° SSW 11:27:48 71° WNW 11:33:06 10° NNE
IRS-1C Rocket 4.2 11:22:49 10° NNE 11:28:07 82° ESE 11:33:23 10° SSW
COSMOS 2455 3.0 11:22:21 10° SW 11:28:13 54° WNW 11:34:08 10° NNE
STARLINK-45 3.5 11:24:42 10° SW 11:28:43 83° NW 11:32:46 10° NE
CZ-4 R/B 4.1 11:25:47 10° NE 11:29:19 25° E 11:32:48 10° SSE
STARLINK-70 3.5 11:26:10 10° SW 11:30:11 85° NW 11:34:14 10° NE
STARLINK-76 3.5 11:27:47 10° SW 11:31:49 86° NNW 11:35:51 10° NE
STARLINK 3.5 11:29:28 10° SW 11:33:29 84° NW 11:37:31 10° NE
CZ-2C R/B 4.4 11:29:25 10° SSE 11:33:57 59° ENE 11:38:28 10° N
Cosmos 2263 Rocket 2.5 11:28:47 10° NNW 11:34:26 71° ENE 11:40:04 10° SSE
STARLINK-32 3.5 11:31:04 10° SW 11:35:06 81° NW 11:39:08 10° NE
CENTAUR R/B 3.5 11:27:01 10° NNW 11:35:08 71° NE 11:43:52 10° SE
Lacrosse 5 rocket 3.8 11:35:31 10° NNW 11:36:12 10° N 11:36:54 10° N
ATLAS 2AS CENTAUR R/B 3.1 11:28:33 10° SW 11:36:30 77° NW 11:44:33 10° NNE
STARLINK-40 3.5 11:32:46 10° SW 11:36:47 79° NW 11:40:49 10° NE
H-2A R/B 3.0 11:33:36 10° N 11:37:24 48° WNW 11:41:09 10° SSW
Cosmos 2181 Rocket 4.2 11:31:53 10° SSW 11:37:50 51° WNW 11:43:56 10° N
USA 32 4.4 11:33:13 10° NNW 11:38:07 42° W 11:43:01 10° SSW
STARLINK-44 3.5 11:34:25 10° SW 11:38:26 76° NW 11:42:27 10° NE
STARLINK-37 3.5 11:36:13 10° WSW 11:40:13 71° NW 11:44:15 10° NE
ADEOS Rocket 2.9 11:36:00 10° S 11:41:22 54° W 11:46:48 10° NNW
STARLINK-36 3.5 11:37:44 10° WSW 11:41:45 72° NW 11:45:47 10° NE
STARLINK-68 3.6 11:39:36 10° WSW 11:43:36 64° NW 11:47:36 10° NE
STARLINK-63 3.5 11:41:10 10° WSW 11:45:10 64° NW 11:49:10 10° NE
YAOGAN 6 2.9 11:42:36 10° NNE 11:46:10 71° E 11:49:40 10° S
Cosmos 1953 3.9 11:43:52 10° WSW 11:46:15 15° WNW 11:48:39 10° NW
STARLINK-35 3.5 11:42:43 10° WSW 11:46:43 65° NW 11:50:45 10° NE
USA 238 DEB 4.1 11:41:18 10° NW 11:48:17 53° WSW 11:55:28 10° S
STARLINK-51 3.6 11:44:22 10° WSW 11:48:21 63° NW 11:52:22 10° NE
USA 238 4.1 11:41:24 10° NW 11:48:24 53° WSW 11:55:35 10° S
Cosmos 1908 3.6 11:44:52 10° SSW 11:48:34 42° WNW 11:52:20 10° N
STARLINK-42 3.5 11:45:52 10° WSW 11:49:39 57° NW 11:53:28 10° NE
STARLINK-64 3.5 11:46:14 10° WSW 11:50:02 58° NW 11:53:50 10° NE
STARLINK-30 3.6 11:46:03 10° WSW 11:50:02 61° NW 11:54:02 10° NE
Cosmos 1703 3.7 11:47:06 10° NNW 11:50:51 41° W 11:54:33 10° SSW
SL-16 R/B 2.3 11:46:30 10° SSW 11:52:10 87° WNW 11:57:53 10° NNE
